| time (UTC) | temp F | wind direction | speed MPH | gust MPH | rain 1hr in | rain 24hr in | rain mn in | humidity % | barometer mb |
| 20260901023059 | 62 | 224 | 0.0 | 0.0 | 0.00 | 0.00 | 0.00 | 80 | 1014.1 |
| 20260901021600 | 62 | 224 | 0.0 | 2.0 | 0.00 | 0.00 | 0.00 | 79 | 1014.0 |
| 20260901020058 | 62 | 224 | 0.0 | 2.0 | 0.00 | 0.00 | 0.00 | 78 | 1014.0 |
| 20260901014658 | 63 | 224 | 0.0 | 2.0 | 0.00 | 0.00 | 0.00 | 77 | 1013.9 |
| 20260901013115 | 64 | 143 | 1.0 | 4.0 | 0.00 | 0.00 | 0.00 | 76 | 1013.9 |
| 20260901011555 | 64 | 256 | 0.0 | 4.0 | 0.00 | 0.00 | 0.00 | 74 | 1014.0 |
| 20260901010057 | 66 | 235 | 2.0 | 5.0 | 0.00 | 0.00 | 0.00 | 73 | 1014.0 |
| 20260901004554 | 65 | 107 | 1.0 | 5.0 | 0.00 | 0.00 | 0.00 | 74 | 1014.0 |
| 20260901003054 | 64 | 136 | 3.0 | 7.0 | 0.00 | 0.00 | 0.00 | 75 | 1013.9 |
| 20260901001553 | 64 | 321 | 2.0 | 5.0 | 0.00 | 0.00 | 0.00 | 76 | 1013.8 |
| 20260901000052 | 64 | 216 | 0.0 | 5.0 | 0.00 | 0.00 | 0.00 | 75 | 1013.8 |
| 20260831234601 | 65 | 237 | 2.0 | 6.0 | 0.00 | 0.01 | 0.00 | 74 | 1014.0 |
| 20260831233055 | 67 | 268 | 2.0 | 6.0 | 0.00 | 0.01 | 0.00 | 72 | 1013.8 |
| 20260831231550 | 68 | 63 | 2.0 | 8.0 | 0.00 | 0.01 | 0.00 | 71 | 1013.9 |
| 20260831230049 | 68 | 227 | 3.0 | 9.0 | 0.00 | 0.01 | 0.00 | 70 | 1013.8 |
| 20260831224547 | 68 | 240 | 1.0 | 7.0 | 0.00 | 0.01 | 0.00 | 71 | 1013.9 |
| 20260831223054 | 68 | 186 | 3.0 | 11.0 | 0.00 | 0.01 | 0.00 | 72 | 1013.9 |
| 20260831221544 | 68 | 275 | 1.0 | 8.0 | 0.00 | 0.01 | 0.00 | 72 | 1013.8 |
| 20260831220046 | 69 | 185 | 1.0 | 6.0 | 0.00 | 0.01 | 0.00 | 70 | 1013.9 |
| 20260831214557 | 69 | 355 | 2.0 | 10.0 | 0.00 | 0.01 | 0.00 | 70 | 1013.7 |
| 20260831213043 | 69 | 100 | 3.0 | 11.0 | 0.00 | 0.01 | 0.00 | 70 | 1013.7 |
| 20260831211545 | 69 | 263 | 1.0 | 11.0 | 0.00 | 0.01 | 0.00 | 68 | 1013.6 |
| 20260831210042 | 69 | 269 | 0.0 | 14.0 | 0.00 | 0.01 | 0.00 | 70 | 1013.5 |
| 20260831204542 | 70 | 303 | 1.0 | 11.0 | 0.00 | 0.01 | 0.00 | 69 | 1013.4 |
| 20260831203041 | 70 | 317 | 3.0 | 9.0 | 0.00 | 0.01 | 0.00 | 68 | 1013.3 |
| 20260831201539 | 70 | 319 | 6.0 | 15.0 | 0.00 | 0.01 | 0.00 | 69 | 1013.2 |
| 20260831200035 | 69 | 214 | 2.0 | 11.0 | 0.00 | 0.01 | 0.00 | 72 | 1013.3 |
| 20260831194536 | 68 | 198 | 3.0 | 9.0 | 0.00 | 0.01 | 0.00 | 72 | 1013.6 |
| 20260831193104 | 68 | 278 | 3.0 | 12.0 | 0.00 | 0.01 | 0.00 | 73 | 1013.6 |
| 20260831191534 | 67 | 254 | 5.0 | 12.0 | 0.00 | 0.01 | 0.00 | 72 | 1013.5 |
| 20260831190040 | 68 | 211 | 3.0 | 10.0 | 0.00 | 0.01 | 0.00 | 73 | 1013.5 |
| 20260831184533 | 68 | 267 | 4.0 | 10.0 | 0.00 | 0.01 | 0.00 | 71 | 1013.4 |
| 20260831183032 | 68 | 218 | 1.0 | 13.0 | 0.00 | 0.01 | 0.00 | 72 | 1013.2 |
| 20260831181544 | 67 | 245 | 2.0 | 3.0 | 0.00 | 0.01 | 0.00 | 71 | 1013.0 |
| 20260831180034 | 66 | 360 | 2.0 | 4.0 | 0.00 | 0.01 | 0.00 | 75 | 1013.1 |
| 20260831174523 | 64 | 306 | 1.0 | 4.0 | 0.00 | 0.01 | 0.00 | 79 | 1013.3 |
| 20260831173020 | 61 | 32 | 0.0 | 2.0 | 0.00 | 0.01 | 0.00 | 86 | 1013.3 |
| 20260831171515 | 58 | 32 | 0.0 | 2.0 | 0.00 | 0.01 | 0.00 | 92 | 1013.3 |
| 20260831170010 | 56 | 32 | 0.0 | 2.0 | 0.00 | 0.01 | 0.00 | 97 | 1013.4 |
| 20260831164505 | 54 | 32 | 0.0 | 0.0 | 0.00 | 0.01 | 0.00 | 98 | 1013.5 |
| 20260831163003 | 52 | 32 | 0.0 | 0.0 | 0.00 | 0.01 | 0.00 | 98 | 1013.4 |
| 20260831161504 | 50 | 32 | 0.0 | 0.0 | 0.00 | 0.01 | 0.00 | 98 | 1013.4 |
| 20260831160001 | 49 | 32 | 0.0 | 0.0 | 0.00 | 0.01 | 0.00 | 97 | 1013.6 |
| 20260831154612 | 48 | 32 | 0.0 | 0.0 | 0.00 | 0.01 | 0.00 | 97 | 1013.6 |
| 20260831153059 | 47 | 32 | 0.0 | 0.0 | 0.00 | 0.01 | 0.00 | 97 | 1013.7 |
| 20260831151558 | 46 | 32 | 0.0 | 0.0 | 0.00 | 0.01 | 0.00 | 97 | 1013.7 |
| 20260831150105 | 46 | 32 | 0.0 | 0.0 | 0.00 | 0.01 | 0.00 | 97 | 1013.7 |
| 20260831144601 | 46 | 32 | 0.0 | 0.0 | 0.00 | 0.01 | 0.00 | 96 | 1013.6 |
| 20260831143057 | 46 | 32 | 0.0 | 0.0 | 0.00 | 0.01 | 0.00 | 96 | 1013.4 |
| 20260831141556 | 46 | 32 | 0.0 | 0.0 | 0.00 | 0.01 | 0.00 | 96 | 1013.3 |
| 20260831140056 | 46 | 32 | 0.0 | 0.0 | 0.00 | 0.01 | 0.00 | 96 | 1013.1 |
| 20260831134604 | 46 | 32 | 0.0 | 0.0 | 0.00 | 0.01 | 0.00 | 96 | 1012.9 |
| 20260831133054 | 46 | 32 | 0.0 | 0.0 | 0.00 | 0.01 | 0.00 | 96 | 1013.0 |
| 20260831131600 | 46 | 32 | 0.0 | 0.0 | 0.00 | 0.01 | 0.00 | 96 | 1012.8 |
| 20260831130051 | 46 | 32 | 0.0 | 0.0 | 0.00 | 0.01 | 0.00 | 96 | 1012.8 |
| 20260831124550 | 47 | 32 | 0.0 | 0.0 | 0.00 | 0.01 | 0.00 | 96 | 1012.9 |
| 20260831123049 | 47 | 32 | 0.0 | 0.0 | 0.00 | 0.01 | 0.00 | 96 | 1012.9 |
| 20260831121548 | 47 | 32 | 0.0 | 0.0 | 0.00 | 0.01 | 0.00 | 96 | 1013.1 |
| 20260831120046 | 47 | 32 | 0.0 | 0.0 | 0.00 | 0.01 | 0.00 | 96 | 1013.1 |
| 20260831114545 | 47 | 32 | 0.0 | 0.0 | 0.00 | 0.01 | 0.00 | 96 | 1013.1 |
| 20260831113047 | 48 | 32 | 0.0 | 0.0 | 0.00 | 0.01 | 0.00 | 96 | 1013.0 |
| 20260831111550 | 48 | 32 | 0.0 | 0.0 | 0.00 | 0.01 | 0.00 | 96 | 1013.1 |
| 20260831110041 | 48 | 32 | 0.0 | 0.0 | 0.00 | 0.01 | 0.00 | 95 | 1013.0 |
| 20260831104540 | 48 | 32 | 0.0 | 0.0 | 0.00 | 0.01 | 0.00 | 95 | 1013.1 |
| 20260831103039 | 48 | 32 | 0.0 | 0.0 | 0.00 | 0.01 | 0.00 | 95 | 1013.1 |
| 20260831101537 | 49 | 32 | 0.0 | 0.0 | 0.00 | 0.01 | 0.00 | 95 | 1013.1 |
| 20260831100047 | 49 | 32 | 0.0 | 0.0 | 0.00 | 0.01 | 0.00 | 95 | 1013.0 |
| 20260831094540 | 49 | 32 | 0.0 | 0.0 | 0.00 | 0.01 | 0.00 | 95 | 1013.2 |
| 20260831093047 | 49 | 32 | 0.0 | 0.0 | 0.00 | 0.01 | 0.00 | 95 | 1013.3 |
| 20260831091530 | 50 | 32 | 0.0 | 0.0 | 0.00 | 0.01 | 0.00 | 95 | 1013.3 |
| 20260831090028 | 50 | 32 | 0.0 | 0.0 | 0.00 | 0.01 | 0.00 | 95 | 1013.3 |
| 20260831084526 | 50 | 32 | 0.0 | 0.0 | 0.00 | 0.01 | 0.00 | 94 | 1013.4 |
| 20260831083025 | 51 | 32 | 0.0 | 0.0 | 0.00 | 0.01 | 0.00 | 94 | 1013.5 |
| 20260831081523 | 51 | 32 | 0.0 | 0.0 | 0.00 | 0.01 | 0.00 | 94 | 1013.6 |
| 20260831080032 | 51 | 32 | 0.0 | 0.0 | 0.00 | 0.01 | 0.00 | 93 | 1013.7 |
| 20260831074518 | 52 | 32 | 0.0 | 0.0 | 0.00 | 0.01 | 0.00 | 93 | 1013.7 |
| 20260831073016 | 52 | 32 | 0.0 | 0.0 | 0.00 | 0.01 | 0.00 | 93 | 1013.8 |
| 20260831071532 | 52 | 32 | 0.0 | 0.0 | 0.00 | 0.01 | 0.00 | 92 | 1013.9 |
| 20260831070012 | 53 | 32 | 0.0 | 0.0 | 0.00 | 0.01 | 0.00 | 92 | 1014.0 |
| 20260831064511 | 53 | 32 | 0.0 | 0.0 | 0.00 | 0.01 | 0.01 | 92 | 1014.1 |
| 20260831063014 | 54 | 32 | 0.0 | 0.0 | 0.00 | 0.01 | 0.01 | 91 | 1014.0 |
| 20260831061511 | 54 | 32 | 0.0 | 0.0 | 0.00 | 0.01 | 0.01 | 91 | 1014.1 |
| 20260831060012 | 55 | 32 | 0.0 | 0.0 | 0.00 | 0.01 | 0.01 | 90 | 1014.2 |
| 20260831054509 | 55 | 32 | 0.0 | 0.0 | 0.00 | 0.01 | 0.01 | 88 | 1014.3 |
| 20260831053009 | 56 | 32 | 0.0 | 0.0 | 0.00 | 0.01 | 0.01 | 88 | 1014.5 |
| 20260831051513 | 56 | 32 | 0.0 | 0.0 | 0.00 | 0.01 | 0.01 | 87 | 1014.5 |
| 20260831050008 | 57 | 32 | 0.0 | 0.0 | 0.00 | 0.01 | 0.01 | 86 | 1014.6 |
| 20260831044508 | 58 | 32 | 0.0 | 0.0 | 0.00 | 0.01 | 0.01 | 85 | 1014.6 |
| 20260831043007 | 59 | 32 | 0.0 | 0.0 | 0.00 | 0.01 | 0.01 | 84 | 1014.5 |
| 20260831041510 | 60 | 32 | 0.0 | 0.0 | 0.00 | 0.01 | 0.01 | 82 | 1014.4 |
| 20260831040006 | 61 | 32 | 0.0 | 0.0 | 0.00 | 0.01 | 0.01 | 80 | 1014.2 |
| 20260831034505 | 62 | 32 | 0.0 | 2.0 | 0.00 | 0.01 | 0.01 | 78 | 1014.1 |
| 20260831033013 | 63 | 32 | 0.0 | 2.0 | 0.00 | 0.01 | 0.01 | 77 | 1014.0 |
| 20260831031505 | 63 | 158 | 0.0 | 2.0 | 0.00 | 0.01 | 0.01 | 75 | 1013.9 |
| 20260831030004 | 65 | 171 | 0.0 | 0.0 | 0.00 | 0.01 | 0.01 | 72 | 1013.7 |